Volver al catálogo

STARLINK-34875

ActivoComunicacionesVLEO
NORAD 65689·PAYLOAD·🇺🇸 United States

Lanzado Sep 21, 2025 desde Cape Canaveral Space Force Station

Loading…

Próximos Pases (próximas 24 horas)

TLE

ActualizadoSource: CelesTrak SupGP

Época: Sep 14, 2026, 22:36 UTC

1 65689C 25212P   26257.94215278 -.00036066  00000+0 -10653-2 0  2572
2 65689  53.1584 183.8021 0001404  88.4455  93.2041 15.34415841    14

Sigue STARLINK-34875 en tiempo real con AllMySat

Download on the App Store